This is the latest recevied weather packets stored in our database for station/object CE3TL-WX. If no packets are shown the sender has not sent any weather packets the latest 10 day(s).
| Time | Temp. | Humidity | Pressure | Rain* | Wind** | Luminosity | Snow |
|---|---|---|---|---|---|---|---|
| 1777737048 | 16.11° C | 60% | 1024.1 hPa | - | - | - | - |
| 1777736514 | 15.56° C | 60% | 1024.2 hPa | - | - | - | - |
| 1777735980 | 15° C | 61% | 1024.4 hPa | - | - | - | - |
| 1777735446 | 15° C | 63% | 1024.5 hPa | - | - | - | - |
| 1777734913 | 14.44° C | 64% | 1024.6 hPa | - | - | - | - |
| 1777734378 | 13.89° C | 63% | 1024.5 hPa | - | - | - | - |
| 1777733844 | 13.89° C | 63% | 1024.6 hPa | - | - | - | - |
| 1777733310 | 13.89° C | 65% | 1024.7 hPa | - | - | - | - |
| 1777732776 | 12.78° C | 66% | 1024.9 hPa | - | - | - | - |
| 1777732242 | 12.22° C | 64% | 1024.9 hPa | - | - | - | - |
| 1777731707 | 12.22° C | 65% | 1024.9 hPa | - | - | - | - |
| 1777731174 | 11.67° C | 66% | 1024.9 hPa | - | - | - | - |
| 1777730640 | 11.11° C | 65% | 1024.9 hPa | - | - | - | - |
| 1777730106 | 11.11° C | 67% | 1025 hPa | - | - | - | - |
| 1777729573 | 10.56° C | 68% | 1025.1 hPa | - | - | - | - |
| 1777729038 | 10.56° C | 75% | 1025.2 hPa | - | - | - | - |
| 1777728503 | 10° C | 70% | 1025.1 hPa | - | - | - | - |
| 1777727969 | 9.44° C | 73% | 1025.1 hPa | - | - | - | - |
| 1777727435 | 9.44° C | 75% | 1025.1 hPa | - | - | - | - |
| 1777726901 | 8.89° C | 81% | 1025.2 hPa | - | - | - | - |
| 1777726368 | 8.89° C | 80% | 1025.3 hPa | - | - | - | - |
| 1777725834 | 8.33° C | 81% | 1025.2 hPa | - | - | - | - |
| 1777725301 | 8.33° C | 79% | 1025.1 hPa | - | - | - | - |
| 1777724765 | 7.78° C | 80% | 1025.1 hPa | - | - | - | - |
| 1777724231 | 7.78° C | 80% | 1025.1 hPa | - | - | - | - |
* Rain since midnight (hover to see other rain measurements)
** Current wind speed in m/s (hover to see current wind gust speed)